Вернуться в каталог

STARLINK-31910

АктивенСвязьVLEO
NORAD 59664·PAYLOAD·🇺🇸 United States

Запущен May 6, 2024 с Cape Canaveral Space Force Station

Loading…

Ближайшие Пролёты (ближайшие 24 часа)

TLE

СвежийSource: CelesTrak SupGP

Эпоха: Sep 15, 2026, 03:20 UTC

1 59664C 24084L   26258.13937500 -.00029443  00000+0 -10666-2 0  2581
2 59664  43.0032  51.6571 0001664 272.1996 300.7347 15.27587882    10

Отслеживайте STARLINK-31910 в реальном времени с AllMySat

Download on the App Store